カタログに戻る

ARIANE 1 DEB

運用中GTO
NORAD 19857·DEBRIS·🇫🇷 France

打ち上げ Jul 2, 1985 から Guiana Space Centre

Loading…

TLE

経年Source: Space-Track

元期: Sep 14, 2026, 12:55 UTC

1 19857U 85056P   26257.53822404  .00000847  00000-0  16927-1 0  9999
2 19857   7.0544 333.7305 7111172 217.6884 135.6704  2.29698623 99812

AllMySatでARIANE 1 DEBをリアルタイム追跡

Download on the App Store